TimeEST,TemperatureF,Dew PointF,Humidity,Sea Level PressureIn,VisibilityMPH,Wind Direction,Wind SpeedMPH,Gust SpeedMPH,PrecipitationIn,Events,Conditions,WindDirDegrees,DateUTC
12:06 AM,28.4,15.8,59,29.94,10.0,West,13.8,23.0,N/A,,Clear,280,2014-02-16 05:06:00
12:27 AM,28.4,14.0,55,29.95,10.0,WNW,15.0,21.9,N/A,,Clear,290,2014-02-16 05:27:00
12:45 AM,28.4,14.0,55,29.96,10.0,West,12.7,21.9,N/A,,Clear,280,2014-02-16 05:45:00
1:06 AM,28.4,14.0,55,29.96,10.0,West,16.1,-,N/A,,Clear,280,2014-02-16 06:06:00
1:27 AM,28.4,14.0,55,29.97,10.0,West,15.0,-,N/A,,Clear,280,2014-02-16 06:27:00
1:48 AM,28.4,14.0,55,29.99,10.0,West,11.5,-,N/A,,Clear,260,2014-02-16 06:48:00
2:06 AM,28.4,14.0,55,30.00,10.0,West,12.7,17.3,N/A,,Clear,270,2014-02-16 07:06:00
2:27 AM,28.4,14.0,55,30.01,10.0,West,9.2,-,N/A,,Clear,260,2014-02-16 07:27:00
2:48 AM,28.4,14.0,55,30.01,10.0,West,11.5,-,N/A,,Clear,260,2014-02-16 07:48:00
3:06 AM,28.4,14.0,55,30.02,10.0,WSW,6.9,10.4,N/A,,Clear,240,2014-02-16 08:06:00
3:27 AM,28.4,14.0,55,30.01,10.0,West,13.8,17.3,N/A,,Clear,270,2014-02-16 08:27:00
3:48 AM,28.4,14.0,55,29.99,10.0,WNW,11.5,16.1,N/A,,Clear,290,2014-02-16 08:48:00
4:06 AM,26.6,12.2,55,30.00,10.0,West,11.5,-,N/A,,Clear,280,2014-02-16 09:06:00
4:27 AM,26.6,12.2,55,30.01,10.0,West,11.5,16.1,N/A,,Clear,280,2014-02-16 09:27:00
4:48 AM,26.6,12.2,55,30.01,10.0,West,10.4,-,N/A,,Clear,280,2014-02-16 09:48:00
5:06 AM,26.6,12.2,55,30.01,10.0,West,11.5,-,N/A,,Clear,280,2014-02-16 10:06:00
5:27 AM,26.6,12.2,55,30.02,10.0,WNW,11.5,-,N/A,,Clear,290,2014-02-16 10:27:00
5:45 AM,26.6,10.4,51,30.02,10.0,WNW,11.5,-,N/A,,Overcast,290,2014-02-16 10:45:00
6:45 AM,24.8,10.4,54,30.04,10.0,West,9.2,-,N/A,,Mostly Cloudy,270,2014-02-16 11:45:00
7:45 AM,24.8,10.4,54,30.07,10.0,West,6.9,-,N/A,,Mostly Cloudy,260,2014-02-16 12:45:00
8:45 AM,28.4,10.4,47,30.09,10.0,West,8.1,-,N/A,,Scattered Clouds,260,2014-02-16 13:45:00
9:55 AM,-9999,-9999,N/A,30.08,10.0,West,5.8,-,N/A,,Partly Cloudy,260,2014-02-16 14:55:00
10:50 AM,35.6,10.4,35,30.08,10.0,West,5.8,-,N/A,,Partly Cloudy,270,2014-02-16 15:50:00
11:45 AM,37.4,10.4,33,30.06,10.0,Calm,Calm,-,N/A,,Partly Cloudy,0,2014-02-16 16:45:00
12:55 PM,35.6,10.4,35,30.05,10.0,West,5.8,-,N/A,,Mostly Cloudy,280,2014-02-16 17:55:00
1:50 PM,42.8,14.0,31,30.02,10.0,WNW,6.9,-,N/A,,Scattered Clouds,290,2014-02-16 18:50:00
2:55 PM,37.4,14.0,38,30.02,10.0,NW,6.9,-,N/A,,Overcast,320,2014-02-16 19:55:00
3:45 PM,33.8,17.6,52,30.03,10.0,NW,12.7,17.3,N/A,Snow,Light Snow,320,2014-02-16 20:45:00
4:45 PM,32.0,21.2,64,30.05,10.0,NNW,4.6,-,N/A,,Overcast,340,2014-02-16 21:45:00
5:45 PM,30.2,19.4,64,30.06,10.0,WNW,5.8,-,N/A,,Overcast,300,2014-02-16 22:45:00
6:50 PM,30.2,21.2,69,30.10,10.0,West,9.2,-,N/A,,Overcast,280,2014-02-16 23:50:00
7:45 PM,30.2,21.2,69,30.12,10.0,WNW,8.1,-,N/A,,Overcast,300,2014-02-17 00:45:00
8:55 PM,30.2,19.4,64,30.16,10.0,WNW,6.9,-,N/A,,Overcast,300,2014-02-17 01:55:00
10:09 PM,26.6,19.4,74,30.18,10.0,West,6.9,-,N/A,,Clear,280,2014-02-17 03:09:00
10:30 PM,28.4,19.4,69,30.19,10.0,WSW,3.5,-,N/A,,Scattered Clouds,250,2014-02-17 03:30:00
10:48 PM,28.4,19.4,69,30.20,10.0,WSW,4.6,-,N/A,,Clear,250,2014-02-17 03:48:00
11:09 PM,26.6,19.4,74,30.20,10.0,West,6.9,-,N/A,,Mostly Cloudy,270,2014-02-17 04:09:00
11:30 PM,28.4,21.2,74,30.21,10.0,West,6.9,-,N/A,,Mostly Cloudy,260,2014-02-17 04:30:00
11:48 PM,28.4,21.2,74,30.22,10.0,West,6.9,-,N/A,,Mostly Cloudy,270,2014-02-17 04:48:00